When you browse on this site, cookies collect data to enhance your experience and personalize the content and advertising you see.
Visit our Privacy Policy to learn more. By continuing to use the site, you agree to this use of cookies and data.
  • In United States
  • List of Countries
  • For 7 days
  • Water Temperature
  • Satellite Maps
  • Weather Map
  • Weather Widgets
  • user-avatar
    Login

    Hourly Weather Lezhe

    Today, 17 February, Sunday

    Time Temperature Precipitation Wind Pressure Humidity
    00:00 +4°C° 0 mm 2 mps 746 mmHg 65%
    01:00 +4°C° 0 mm 2 mps 746 mmHg 65%
    02:00 +4°C° 0 mm 2 mps 746 mmHg 64%
    03:00 +4°C° 0 mm 2 mps 746 mmHg 63%
    04:00 +4°C° 0 mm 2 mps 745 mmHg 62%
    05:00 +4°C° 0 mm 2 mps 745 mmHg 60%
    06:00 +4°C° 0 mm 2 mps 745 mmHg 59%
    07:00 +4°C° 0 mm 2 mps 745 mmHg 58%
    08:00 +6°C° 0 mm 2 mps 745 mmHg 52%
    09:00 +10°C° 0 mm 1 mps 745 mmHg 46%
    10:00 +12°C° 0 mm 1 mps 745 mmHg 40%
    11:00 +13°C° 0 mm 1 mps 745 mmHg 39%
    12:00 +14°C° 0 mm 1 mps 745 mmHg 37%
    13:00 +15°C° 0 mm 1 mps 744 mmHg 35%
    14:00 +15°C° 0 mm 2 mps 744 mmHg 40%
    15:00 +14°C° 0 mm 2 mps 744 mmHg 45%
    16:00 +14°C° 0 mm 2 mps 744 mmHg 49%
    17:00 +12°C° 0 mm 1 mps 744 mmHg 54%
    18:00 +11°C° 0 mm 1 mps 744 mmHg 59%
    19:00 +9°C° 0 mm 1 mps 744 mmHg 63%
    20:00 +9°C° 0 mm 1 mps 744 mmHg 63%
    21:00 +8°C° 0 mm 1 mps 744 mmHg 62%
    22:00 +8°C° 0 mm 1 mps 744 mmHg 61%
    23:00 +8°C° 0 mm 1 mps 744 mmHg 60%

    Tomorrow, 18 February, Monday

    Time Temperature Precipitation Wind Pressure Humidity
    00:00 +8°C° 0 mm 1 mps 744 mmHg 59%
    01:00 +7°C° 0 mm 1 mps 744 mmHg 57%
    02:00 +7°C° 0 mm 1 mps 744 mmHg 56%
    03:00 +7°C° 0 mm 1 mps 744 mmHg 55%
    04:00 +7°C° 0 mm 1 mps 743 mmHg 55%
    05:00 +7°C° 0 mm 1 mps 743 mmHg 54%
    06:00 +7°C° 0 mm 1 mps 744 mmHg 53%
    07:00 +7°C° 0 mm 1 mps 744 mmHg 53%
    08:00 +9°C° 0 mm 1 mps 744 mmHg 48%
    09:00 +10°C° 0 mm 0 mps 744 mmHg 43%
    10:00 +12°C° 0 mm 0 mps 744 mmHg 39%
    11:00 +14°C° 0 mm 1 mps 743 mmHg 38%
    12:00 +14°C° 0 mm 1 mps 743 mmHg 38%
    13:00 +15°C° 0 mm 1 mps 743 mmHg 38%
    14:00 +15°C° 0 mm 1 mps 742 mmHg 42%
    15:00 +14°C° 0 mm 1 mps 742 mmHg 46%
    16:00 +14°C° 0 mm 1 mps 742 mmHg 50%
    17:00 +12°C° 0 mm 1 mps 742 mmHg 56%
    18:00 +10°C° 0 mm 0 mps 742 mmHg 62%
    19:00 +8°C° 0 mm 0 mps 742 mmHg 68%
    20:00 +8°C° 0 mm 0 mps 742 mmHg 68%
    21:00 +8°C° 0 mm 0 mps 743 mmHg 68%
    22:00 +8°C° 0 mm 1 mps 743 mmHg 69%
    23:00 +8°C° 0 mm 1 mps 743 mmHg 68%

    Day after tomorrow, 19 February, Tuesday

    Time Temperature Precipitation Wind Pressure Humidity
    00:00 +8°C° 0 mm 1 mps 743 mmHg 68%
    01:00 +8°C° 0 mm 1 mps 743 mmHg 68%
    02:00 +7°C° 0 mm 1 mps 742 mmHg 68%
    03:00 +7°C° 0 mm 1 mps 742 mmHg 68%
    04:00 +7°C° 0 mm 1 mps 742 mmHg 69%
    05:00 +7°C° 0 mm 1 mps 742 mmHg 68%
    06:00 +7°C° 0 mm 1 mps 742 mmHg 68%
    07:00 +7°C° 0 mm 1 mps 742 mmHg 68%
    08:00 +9°C° 0 mm 1 mps 742 mmHg 61%
    09:00 +11°C° 0 mm 1 mps 742 mmHg 55%
    10:00 +12°C° 0 mm 0 mps 743 mmHg 48%
    11:00 +13°C° 0 mm 1 mps 742 mmHg 47%
    12:00 +14°C° 0 mm 1 mps 742 mmHg 46%
    13:00 +14°C° 0 mm 1 mps 742 mmHg 45%
    14:00 +14°C° 0 mm 1 mps 741 mmHg 48%
    15:00 +13°C° 0 mm 1 mps 741 mmHg 52%
    16:00 +13°C° 0 mm 1 mps 741 mmHg 55%
    17:00 +11°C° 0 mm 1 mps 741 mmHg 63%
    18:00 +9°C° 0 mm 0 mps 742 mmHg 70%
    19:00 +8°C° 0 mm 0 mps 742 mmHg 77%
    20:00 +7°C° 0 mm 0 mps 742 mmHg 78%
    21:00 +8°C° 0 mm 1 mps 742 mmHg 79%
    22:00 +8°C° 0 mm 1 mps 742 mmHg 80%
    23:00 +7°C° 0 mm 1 mps 742 mmHg 80%

    20 February, Wednesday

    Time Temperature Precipitation Wind Pressure Humidity
    00:00 +7°C° 0 mm 1 mps 742 mmHg 81%
    01:00 +7°C° 0 mm 1 mps 742 mmHg 81%
    02:00 +7°C° 0 mm 1 mps 742 mmHg 81%
    03:00 +6°C° 0 mm 1 mps 742 mmHg 80%
    04:00 +6°C° 0 mm 1 mps 742 mmHg 80%
    05:00 +6°C° 0 mm 1 mps 742 mmHg 79%
    06:00 +6°C° 0 mm 1 mps 742 mmHg 77%
    07:00 +6°C° 0 mm 1 mps 742 mmHg 76%
    08:00 +8°C° 0 mm 1 mps 743 mmHg 69%
    09:00 +10°C° 0 mm 1 mps 743 mmHg 62%
    10:00 +11°C° 0 mm 0 mps 743 mmHg 55%
    11:00 +13°C° 0 mm 1 mps 743 mmHg 55%
    12:00 +13°C° 0 mm 1 mps 743 mmHg 54%
    13:00 +14°C° 0 mm 2 mps 743 mmHg 54%
    14:00 +13°C° 0 mm 2 mps 742 mmHg 57%
    15:00 +13°C° 0 mm 2 mps 742 mmHg 61%
    16:00 +13°C° 0 mm 2 mps 742 mmHg 64%
    17:00 +12°C° 0 mm 1 mps 743 mmHg 71%
    18:00 +10°C° 0 mm 1 mps 743 mmHg 77%
    19:00 +9°C° 0 mm 1 mps 743 mmHg 84%
    20:00 +9°C° 0 mm 1 mps 744 mmHg 80%
    21:00 +9°C° 0 mm 1 mps 744 mmHg 76%
    22:00 +8°C° 0 mm 1 mps 744 mmHg 73%
    23:00 +8°C° 0 mm 1 mps 744 mmHg 70%

    21 February, Thursday

    Time Temperature Precipitation Wind Pressure Humidity
    00:00 +8°C° 0 mm 1 mps 744 mmHg 68%
    01:00 +8°C° 0 mm 1 mps 744 mmHg 66%
    02:00 +7°C° 0 mm 1 mps 744 mmHg 65%
    03:00 +6°C° 0 mm 2 mps 744 mmHg 65%
    04:00 +6°C° 0 mm 2 mps 744 mmHg 64%
    05:00 +6°C° 0 mm 2 mps 744 mmHg 65%
    06:00 +6°C° 0 mm 2 mps 744 mmHg 66%
    07:00 +6°C° 0 mm 2 mps 744 mmHg 67%
    08:00 +8°C° 0 mm 2 mps 745 mmHg 61%
    09:00 +11°C° 0 mm 1 mps 745 mmHg 54%
    10:00 +13°C° 0 mm 1 mps 745 mmHg 48%
    11:00 +14°C° 0 mm 1 mps 745 mmHg 44%
    12:00 +15°C° 0 mm 2 mps 744 mmHg 41%
    13:00 +16°C° 0 mm 2 mps 744 mmHg 38%
    14:00 +16°C° 0 mm 2 mps 744 mmHg 41%
    15:00 +15°C° 0 mm 2 mps 744 mmHg 44%
    16:00 +15°C° 0 mm 2 mps 744 mmHg 46%
    17:00 +13°C° 0 mm 2 mps 744 mmHg 52%
    18:00 +12°C° 0 mm 2 mps 744 mmHg 58%
    19:00 +9°C° 0 mm 2 mps 744 mmHg 64%
    20:00 +9°C° 0 mm 2 mps 745 mmHg 64%
    21:00 +9°C° 0 mm 2 mps 745 mmHg 63%
    22:00 +9°C° 0 mm 1 mps 745 mmHg 63%
    23:00 +8°C° 0 mm 2 mps 745 mmHg 64%

    22 February, Friday

    Time Temperature Precipitation Wind Pressure Humidity
    00:00 +8°C° 0 mm 2 mps 745 mmHg 64%
    01:00 +7°C° 0 mm 2 mps 745 mmHg 64%
    02:00 +7°C° 0 mm 2 mps 744 mmHg 65%
    03:00 +7°C° 0 mm 2 mps 744 mmHg 66%
    04:00 +7°C° 0 mm 2 mps 744 mmHg 66%
    05:00 +6°C° 0 mm 2 mps 744 mmHg 67%
    06:00 +6°C° 0 mm 2 mps 744 mmHg 68%
    07:00 +6°C° 0 mm 2 mps 743 mmHg 68%
    08:00 +9°C° 0 mm 1 mps 743 mmHg 61%
    09:00 +11°C° 0 mm 1 mps 743 mmHg 55%
    10:00 +12°C° 0 mm 0 mps 743 mmHg 48%
    11:00 +14°C° 0 mm 1 mps 742 mmHg 46%
    12:00 +15°C° 0 mm 1 mps 742 mmHg 44%
    13:00 +15°C° 0 mm 1 mps 741 mmHg 41%
    14:00 +15°C° 0 mm 2 mps 741 mmHg 45%
    15:00 +14°C° 0 mm 2 mps 741 mmHg 48%
    16:00 +14°C° 0 mm 2 mps 741 mmHg 51%
    17:00 +13°C° 0 mm 2 mps 741 mmHg 55%
    18:00 +12°C° 0 mm 2 mps 741 mmHg 60%
    19:00 +10°C° 0 mm 2 mps 741 mmHg 64%
    20:00 +10°C° 0.1 mm 2 mps 741 mmHg 66%
    21:00 +9°C° 0.1 mm 2 mps 741 mmHg 67%
    22:00 +9°C° 0.1 mm 2 mps 741 mmHg 68%
    23:00 +9°C° 0 mm 2 mps 741 mmHg 68%
    Show more